Weather History for Clarksburg, WV

Change the Weather History Date:

Tuesday, July 23, 2013

  Actual Average Record
Temperature  
Mean Temperature 75 °F -  
Max Temperature 82 °F 85 °F 98 °F (1933)
Min Temperature 68 °F 62 °F 44 °F (1947)
Cooling Degree Days 10    
Growing Degree Days 25 (Base 50)    
Moisture  
Dew Point 66 °F    
Average Humidity 82    
Maximum Humidity 94    
Minimum Humidity 54    
Precipitation  
Precipitation 0.96 in - - ()
Sea Level Pressure  
Sea Level Pressure 29.78 in    
Wind  
Wind Speed 4 mph (WSW)    
Max Wind Speed 29 mph    
Max Gust Speed 54 mph    
Visibility 7 miles    
Events Rain , Thunderstorm    
Averages and records for this station are not official NWS values.
T = Trace of Precipitation, MM = Missing Value Source: NWS Daily Summary

Daily Weather History Graph

Daily Weather History Graph

Search for Another Location

Airport:

Trip Planner

Search our weather history database for the weather conditions in past years. The results will help you decide how hot, cold, wet, or windy it might be!

Date:

Astronomy

Jul. 23, 2013 Rise Set
Actual Time 6:13 AM EDT 8:41 PM EDT
Civil Twilight 5:42 AM EDT 9:11 PM EDT
Nautical Twilight 5:04 AM EDT 9:49 PM EDT
Astronomical Twilight 4:22 AM EDT 10:31 PM EDT
Moon 9:09 PM EDT (7/23) 7:19 AM EDT (7/23)
Length of Visible Light 15h 29m
Length of Day
14h 27m
Full, 99% of the Moon is Illuminated
Jul 23
Full
Jul 29
Last Quarter
Aug 6
New
Aug 14
First Quarter
Aug 20
Full

Hourly Weather History & Observations

Time (EDT) Temp. Heat Index Dew Point Humidity Pressure Visibility Wind Dir Wind Speed Gust Speed Precip Events Conditions
12:18 AM 69.8 °F - 66.2 °F 88% 29.83 in 2.5 mi SW 3.5 mph - 0.13 in Rain Rain
12:21 AM 69.8 °F - 66.2 °F 88% 29.83 in 3.0 mi Calm Calm - 0.13 in Rain Light Rain
12:41 AM 69.8 °F - 66.2 °F 88% 29.82 in 2.5 mi Calm Calm - 0.15 in Rain Rain
12:50 AM 69.8 °F - 66.2 °F 88% 29.82 in 3.0 mi Calm Calm - 0.16 in Rain Light Rain
12:53 AM 69.1 °F - 66.9 °F 93% 29.78 in 4.0 mi Calm Calm - 0.16 in Rain Light Rain
1:02 AM 69.8 °F - 66.2 °F 88% 29.82 in 6.0 mi Calm Calm - 0.00 in Rain Light Rain
1:19 AM 69.8 °F - 66.2 °F 88% 29.82 in 2.5 mi Calm Calm - 0.02 in Rain Light Rain
1:50 AM 68.0 °F - 66.2 °F 94% 29.82 in 4.0 mi SW 4.6 mph - 0.04 in Rain Light Rain
1:51 AM 68.0 °F - 66.0 °F 93% 29.77 in 5.0 mi SW 4.6 mph - 0.04 in Rain Light Rain
2:53 AM 69.1 °F - 66.9 °F 93% 29.77 in 10.0 mi SSW 4.6 mph - 0.00 in   Overcast
3:00 AM 69.8 °F - 66.2 °F 88% 29.82 in 10.0 mi SSW 3.5 mph - N/A   Overcast
3:53 AM 69.1 °F - 66.9 °F 93% 29.76 in 7.0 mi SW 5.8 mph - N/A   Overcast
4:53 AM 69.1 °F - 66.9 °F 93% 29.76 in 10.0 mi WSW 5.8 mph - 0.03 in   Overcast
5:22 AM 69.8 °F - 66.2 °F 88% 29.80 in 9.0 mi WSW 4.6 mph - N/A   Overcast
5:30 AM 69.8 °F - 66.2 °F 88% 29.80 in 9.0 mi West 4.6 mph - N/A   Overcast
5:53 AM 69.1 °F - 66.9 °F 93% 29.76 in 9.0 mi WSW 4.6 mph - N/A   Overcast
6:10 AM 69.8 °F - 66.2 °F 88% 29.81 in 8.0 mi West 4.6 mph - N/A   Overcast
6:53 AM 70.0 °F - 66.9 °F 90% 29.77 in 6.0 mi WSW 3.5 mph - N/A   Overcast
7:08 AM 69.8 °F - 66.2 °F 88% 29.82 in 6.0 mi WSW 4.6 mph - N/A   Overcast
7:53 AM 70.0 °F - 66.9 °F 90% 29.79 in 4.0 mi WSW 5.8 mph - N/A   Overcast
8:09 AM 69.8 °F - 66.2 °F 88% 29.84 in 7.0 mi West 4.6 mph - N/A   Overcast
8:16 AM 71.6 °F - 66.2 °F 83% 29.84 in 7.0 mi West 6.9 mph - N/A   Overcast
8:53 AM 73.0 °F - 66.0 °F 79% 29.80 in 10.0 mi WNW 6.9 mph - N/A   Partly Cloudy
9:53 AM 73.9 °F - 64.9 °F 73% 29.78 in 10.0 mi WNW 8.1 mph - N/A   Scattered Clouds
10:31 AM 75.2 °F - 66.2 °F 73% 29.82 in 10.0 mi West 5.8 mph - N/A   Mostly Cloudy
10:53 AM 75.9 °F - 66.0 °F 71% 29.78 in 10.0 mi West 3.5 mph - N/A   Mostly Cloudy
11:00 AM 77.0 °F - 66.2 °F 69% 29.82 in 10.0 mi NW 4.6 mph - N/A   Scattered Clouds
11:53 AM 77.0 °F - 66.0 °F 69% 29.78 in 10.0 mi NW 5.8 mph - N/A   Scattered Clouds
12:53 PM 78.1 °F - 66.0 °F 66% 29.78 in 10.0 mi WSW 8.1 mph - N/A   Partly Cloudy
1:53 PM 80.1 °F 82.1 °F 66.0 °F 62% 29.77 in 10.0 mi West 6.9 mph - N/A   Mostly Cloudy
2:53 PM 82.9 °F 85.4 °F 66.9 °F 58% 29.76 in 10.0 mi West 9.2 mph - N/A   Partly Cloudy
3:53 PM 82.9 °F 85.0 °F 66.0 °F 56% 29.74 in 10.0 mi WNW 11.5 mph 17.3 mph N/A   Partly Cloudy
4:53 PM 82.9 °F 84.6 °F 64.9 °F 54% 29.72 in 10.0 mi West 8.1 mph - N/A   Partly Cloudy
5:53 PM 81.0 °F 83.0 °F 66.0 °F 60% 29.73 in 10.0 mi West 9.2 mph - N/A   Mostly Cloudy
6:53 PM 78.1 °F - 68.0 °F 71% 29.71 in 10.0 mi SSW 5.8 mph - N/A   Overcast
7:53 PM 77.0 °F - 66.9 °F 71% 29.73 in 10.0 mi South 4.6 mph - N/A   Clear
8:53 PM 75.9 °F - 68.0 °F 76% 29.72 in 10.0 mi South 3.5 mph - N/A   Scattered Clouds
9:01 PM 75.2 °F - 68.0 °F 78% 29.76 in 10.0 mi South 5.8 mph - N/A Thunderstorm Mostly Cloudy
9:25 PM 69.8 °F - 64.4 °F 83% 29.77 in 1.5 mi NW 28.8 mph 38.0 mph 0.27 in Rain , Thunderstorm Heavy Thunderstorms and Rain
9:28 PM 69.8 °F - 62.6 °F 78% 29.78 in 0.8 mi West 19.6 mph 54.1 mph 0.47 in Rain , Thunderstorm Heavy Thunderstorms and Rain
9:38 PM 71.6 °F - 64.4 °F 78% 29.78 in 2.0 mi NW 6.9 mph - 0.55 in Rain , Thunderstorm Thunderstorms and Rain
9:42 PM 71.6 °F - 64.4 °F 78% 29.78 in 2.0 mi NNW 9.2 mph - 0.57 in Rain , Thunderstorm Thunderstorms and Rain
9:53 PM 70.0 °F - 66.0 °F 87% 29.75 in 4.0 mi NNE 5.8 mph - 0.62 in Rain , Thunderstorm Light Thunderstorms and Rain
10:29 PM 68.0 °F - 64.4 °F 88% 29.81 in 2.5 mi Calm Calm - 0.06 in Rain , Thunderstorm Rain
10:36 PM 69.8 °F - 66.2 °F 88% 29.82 in 7.0 mi South 3.5 mph - 0.06 in Rain , Thunderstorm Light Rain
10:53 PM 68.0 °F - 66.0 °F 93% 29.77 in 5.0 mi Calm Calm - 0.08 in Rain , Thunderstorm Rain
11:21 PM 68.0 °F - 66.2 °F 94% 29.80 in 7.0 mi Calm Calm - 0.03 in Rain Light Rain
11:53 PM 68.0 °F - 66.0 °F 93% 29.75 in 7.0 mi South 3.5 mph - 0.03 in   Partly Cloudy